PWSweather.com
Personal Weather Stations
Station Observations
UGLTEWKE1
3 Beckford Close, BeckfordGB GL20 7

3 Beckford CloseBeckfordGB GL20 7

Lat: 52.01582, Lon: -2.037782

Elevation: 112

Station Type: Davis Vantage Pro2

http://www.theshieling.net/weatherdavis.php

High Low Average
Temperature 48.7°F9.3°C 35.2°F1.8°C 42.1°F5.6°C
Dew Point 38.3°F3.5°C 31.8°F-0.1°C 35.5°F1.9°C
Winds 17.0 mph 27.4 kmh Calm Calm 6.0 mph W9.7 kmh W
Wind Gusts 29.0 mph46.7 kmh -- 11.0 mph17.7 kmh
Humidity 89% 54% 78%
Pressure 30.01 in1016.3 mb 29.43 in996.6 mb -
Precipitation 0.00 in0.0 mm - -
Hour Temp Dew Point Humidity Winds Wind Gusts Pressure Precip Precip Rate Daily Precip Total
12:00 AM 41.7°F5.4°C 37.8°F3.2°C 86% 7.0 mph W11.3 kmh W 12.0 mph19.3 kmh 29.43 in996.6 mb 0.00 in0.0 mm 0.00 in0.0 mm 0.00 in0.0 mm
12:05 AM 41.7°F5.4°C 37.8°F3.2°C 86% 6.0 mph WSW9.7 kmh WSW 10.0 mph16.1 kmh 29.43 in996.6 mb 0.00 in0.0 mm 0.00 in0.0 mm 0.00 in0.0 mm
12:10 AM 41.9°F5.5°C 37.9°F3.3°C 86% 4.0 mph WSW6.4 kmh WSW 8.0 mph12.9 kmh 29.44 in997.0 mb 0.00 in0.0 mm 0.00 in0.0 mm 0.00 in0.0 mm
12:15 AM 41.7°F5.4°C 37.8°F3.2°C 86% 5.0 mph SW8.0 kmh SW 9.0 mph14.5 kmh 29.44 in997.0 mb 0.00 in0.0 mm 0.00 in0.0 mm 0.00 in0.0 mm
12:20 AM 41.5°F5.3°C 37.6°F3.1°C 86% 5.0 mph SW8.0 kmh SW 9.0 mph14.5 kmh 29.44 in997.0 mb 0.00 in0.0 mm 0.00 in0.0 mm 0.00 in0.0 mm
12:25 AM 41.5°F5.3°C 37.6°F3.1°C 86% 6.0 mph SW9.7 kmh SW 10.0 mph16.1 kmh 29.44 in997.0 mb 0.00 in0.0 mm 0.00 in0.0 mm 0.00 in0.0 mm
12:30 AM 41.4°F5.2°C 37.4°F3.0°C 86% 6.0 mph SW9.7 kmh SW 9.0 mph14.5 kmh 29.44 in997.0 mb 0.00 in0.0 mm 0.00 in0.0 mm 0.00 in0.0 mm
12:35 AM 41.4°F5.2°C 37.4°F3.0°C 86% 6.0 mph SW9.7 kmh SW 10.0 mph16.1 kmh 29.44 in997.0 mb 0.00 in0.0 mm 0.00 in0.0 mm 0.00 in0.0 mm
12:40 AM 41.4°F5.2°C 37.4°F3.0°C 86% 5.0 mph SW8.0 kmh SW 9.0 mph14.5 kmh 29.44 in997.0 mb 0.00 in0.0 mm 0.00 in0.0 mm 0.00 in0.0 mm
12:45 AM 41.4°F5.2°C 37.4°F3.0°C 86% 6.0 mph SW9.7 kmh SW 9.0 mph14.5 kmh 29.44 in997.0 mb 0.00 in0.0 mm 0.00 in0.0 mm 0.00 in0.0 mm
12:50 AM 41.4°F5.2°C 37.4°F3.0°C 86% 6.0 mph SW9.7 kmh SW 8.0 mph12.9 kmh 29.45 in997.3 mb 0.00 in0.0 mm 0.00 in0.0 mm 0.00 in0.0 mm
12:55 AM 41.5°F5.3°C 37.6°F3.1°C 86% 6.0 mph SW9.7 kmh SW 11.0 mph17.7 kmh 29.45 in997.3 mb 0.00 in0.0 mm 0.00 in0.0 mm 0.00 in0.0 mm
01:00 AM 41.5°F5.3°C 37.4°F3.0°C 85% 6.0 mph SW9.7 kmh SW 9.0 mph14.5 kmh 29.45 in997.3 mb 0.00 in0.0 mm 0.00 in0.0 mm 0.00 in0.0 mm
01:05 AM 41.4°F5.2°C 36.9°F2.7°C 84% 7.0 mph SW11.3 kmh SW 12.0 mph19.3 kmh 29.45 in997.3 mb 0.00 in0.0 mm 0.00 in0.0 mm 0.00 in0.0 mm
01:10 AM 41.4°F5.2°C 36.9°F2.7°C 84% 7.0 mph SW11.3 kmh SW 12.0 mph19.3 kmh 29.45 in997.3 mb 0.00 in0.0 mm 0.00 in0.0 mm 0.00 in0.0 mm
01:15 AM 41.4°F5.2°C 36.9°F2.7°C 84% 7.0 mph SW11.3 kmh SW 12.0 mph19.3 kmh 29.46 in997.6 mb 0.00 in0.0 mm 0.00 in0.0 mm 0.00 in0.0 mm
01:20 AM 41.2°F5.1°C 37.0°F2.8°C 85% 5.0 mph WSW8.0 kmh WSW 11.0 mph17.7 kmh 29.46 in997.6 mb 0.00 in0.0 mm 0.00 in0.0 mm 0.00 in0.0 mm
01:25 AM 41.0°F5.0°C 36.5°F2.5°C 84% 5.0 mph WSW8.0 kmh WSW 8.0 mph12.9 kmh 29.46 in997.6 mb 0.00 in0.0 mm 0.00 in0.0 mm 0.00 in0.0 mm
01:30 AM 40.8°F4.9°C 36.1°F2.3°C 83% 6.0 mph WSW9.7 kmh WSW 10.0 mph16.1 kmh 29.46 in997.6 mb 0.00 in0.0 mm 0.00 in0.0 mm 0.00 in0.0 mm
01:35 AM 40.8°F4.9°C 36.1°F2.3°C 83% 4.0 mph WSW6.4 kmh WSW 10.0 mph16.1 kmh 29.47 in998.0 mb 0.00 in0.0 mm 0.00 in0.0 mm 0.00 in0.0 mm
01:40 AM 40.6°F4.8°C 36.1°F2.3°C 84% 3.0 mph W4.8 kmh W 8.0 mph12.9 kmh 29.47 in998.0 mb 0.00 in0.0 mm 0.00 in0.0 mm 0.00 in0.0 mm
01:45 AM 40.5°F4.7°C 36.0°F2.2°C 84% 2.0 mph WSW3.2 kmh WSW 6.0 mph9.7 kmh 29.47 in998.0 mb 0.00 in0.0 mm 0.00 in0.0 mm 0.00 in0.0 mm
01:50 AM 40.3°F4.6°C 36.1°F2.3°C 85% 2.0 mph WSW3.2 kmh WSW 6.0 mph9.7 kmh 29.47 in998.0 mb 0.00 in0.0 mm 0.00 in0.0 mm 0.00 in0.0 mm
01:55 AM 39.9°F4.4°C 36.1°F2.3°C 86% 3.0 mph SW4.8 kmh SW 6.0 mph9.7 kmh 29.47 in998.0 mb 0.00 in0.0 mm 0.00 in0.0 mm 0.00 in0.0 mm
02:00 AM 39.9°F4.4°C 36.3°F2.4°C 87% 4.0 mph SW6.4 kmh SW 8.0 mph12.9 kmh 29.48 in998.3 mb 0.00 in0.0 mm 0.00 in0.0 mm 0.00 in0.0 mm
02:05 AM 39.9°F4.4°C 36.1°F2.3°C 86% 5.0 mph SW8.0 kmh SW 9.0 mph14.5 kmh 29.47 in998.0 mb 0.00 in0.0 mm 0.00 in0.0 mm 0.00 in0.0 mm
02:10 AM 39.9°F4.4°C 36.1°F2.3°C 86% 4.0 mph SW6.4 kmh SW 9.0 mph14.5 kmh 29.47 in998.0 mb 0.00 in0.0 mm 0.00 in0.0 mm 0.00 in0.0 mm
02:15 AM 40.1°F4.5°C 36.3°F2.4°C 86% 5.0 mph SW8.0 kmh SW 11.0 mph17.7 kmh 29.48 in998.3 mb 0.00 in0.0 mm 0.00 in0.0 mm 0.00 in0.0 mm
02:20 AM 40.3°F4.6°C 36.7°F2.6°C 87% 5.0 mph SW8.0 kmh SW 9.0 mph14.5 kmh 29.48 in998.3 mb 0.00 in0.0 mm 0.00 in0.0 mm 0.00 in0.0 mm
02:25 AM 40.1°F4.5°C 36.5°F2.5°C 87% 4.0 mph SW6.4 kmh SW 7.0 mph11.3 kmh 29.48 in998.3 mb 0.00 in0.0 mm 0.00 in0.0 mm 0.00 in0.0 mm
02:30 AM 39.9°F4.4°C 36.3°F2.4°C 87% 4.0 mph SW6.4 kmh SW 8.0 mph12.9 kmh 29.48 in998.3 mb 0.00 in0.0 mm 0.00 in0.0 mm 0.00 in0.0 mm
02:35 AM 39.9°F4.4°C 36.1°F2.3°C 86% 4.0 mph SW6.4 kmh SW 8.0 mph12.9 kmh 29.48 in998.3 mb 0.00 in0.0 mm 0.00 in0.0 mm 0.00 in0.0 mm
02:40 AM 39.9°F4.4°C 36.1°F2.3°C 86% 5.0 mph SW8.0 kmh SW 10.0 mph16.1 kmh 29.48 in998.3 mb 0.00 in0.0 mm 0.00 in0.0 mm 0.00 in0.0 mm
02:45 AM 39.7°F4.3°C 36.0°F2.2°C 86% 5.0 mph SW8.0 kmh SW 10.0 mph16.1 kmh 29.48 in998.3 mb 0.00 in0.0 mm 0.00 in0.0 mm 0.00 in0.0 mm
02:50 AM 39.7°F4.3°C 36.0°F2.2°C 86% 7.0 mph SW11.3 kmh SW 12.0 mph19.3 kmh 29.49 in998.6 mb 0.00 in0.0 mm 0.00 in0.0 mm 0.00 in0.0 mm
02:55 AM 39.6°F4.2°C 35.8°F2.1°C 86% 6.0 mph SW9.7 kmh SW 12.0 mph19.3 kmh 29.49 in998.6 mb 0.00 in0.0 mm 0.00 in0.0 mm 0.00 in0.0 mm
03:00 AM 39.9°F4.4°C 36.1°F2.3°C 86% 7.0 mph WSW11.3 kmh WSW 11.0 mph17.7 kmh 29.49 in998.6 mb 0.00 in0.0 mm 0.00 in0.0 mm 0.00 in0.0 mm
03:05 AM 39.9°F4.4°C 35.8°F2.1°C 85% 7.0 mph WSW11.3 kmh WSW 11.0 mph17.7 kmh 29.49 in998.6 mb 0.00 in0.0 mm 0.00 in0.0 mm 0.00 in0.0 mm
03:10 AM 39.9°F4.4°C 35.8°F2.1°C 85% 6.0 mph WSW9.7 kmh WSW 10.0 mph16.1 kmh 29.49 in998.6 mb 0.00 in0.0 mm 0.00 in0.0 mm 0.00 in0.0 mm
03:15 AM 40.3°F4.6°C 35.8°F2.1°C 84% 4.0 mph WSW6.4 kmh WSW 9.0 mph14.5 kmh 29.49 in998.6 mb 0.00 in0.0 mm 0.00 in0.0 mm 0.00 in0.0 mm
03:20 AM 40.1°F4.5°C 35.6°F2.0°C 84% 4.0 mph W6.4 kmh W 10.0 mph16.1 kmh 29.50 in999.0 mb 0.00 in0.0 mm 0.00 in0.0 mm 0.00 in0.0 mm
03:25 AM 39.9°F4.4°C 35.4°F1.9°C 84% 3.0 mph W4.8 kmh W 7.0 mph11.3 kmh 29.50 in999.0 mb 0.00 in0.0 mm 0.00 in0.0 mm 0.00 in0.0 mm
03:30 AM 39.9°F4.4°C 35.4°F1.9°C 84% 2.0 mph WSW3.2 kmh WSW 7.0 mph11.3 kmh 29.50 in999.0 mb 0.00 in0.0 mm 0.00 in0.0 mm 0.00 in0.0 mm
03:35 AM 39.9°F4.4°C 35.4°F1.9°C 84% 5.0 mph W8.0 kmh W 10.0 mph16.1 kmh 29.50 in999.0 mb 0.00 in0.0 mm 0.00 in0.0 mm 0.00 in0.0 mm
03:40 AM 39.9°F4.4°C 35.4°F1.9°C 84% 6.0 mph WSW9.7 kmh WSW 11.0 mph17.7 kmh 29.51 in999.3 mb 0.00 in0.0 mm 0.00 in0.0 mm 0.00 in0.0 mm
03:45 AM 39.7°F4.3°C 35.1°F1.7°C 83% 5.0 mph W8.0 kmh W 9.0 mph14.5 kmh 29.51 in999.3 mb 0.00 in0.0 mm 0.00 in0.0 mm 0.00 in0.0 mm
03:50 AM 40.3°F4.6°C 35.6°F2.0°C 83% 8.0 mph W12.9 kmh W 13.0 mph20.9 kmh 29.52 in999.7 mb 0.00 in0.0 mm 0.00 in0.0 mm 0.00 in0.0 mm
03:55 AM 40.5°F4.7°C 35.8°F2.1°C 83% 7.0 mph W11.3 kmh W 14.0 mph22.5 kmh 29.52 in999.7 mb 0.00 in0.0 mm 0.00 in0.0 mm 0.00 in0.0 mm
04:00 AM 40.3°F4.6°C 35.2°F1.8°C 82% 5.0 mph W8.0 kmh W 9.0 mph14.5 kmh 29.52 in999.7 mb 0.00 in0.0 mm 0.00 in0.0 mm 0.00 in0.0 mm
04:05 AM 39.9°F4.4°C 35.2°F1.8°C 83% 8.0 mph WSW12.9 kmh WSW 12.0 mph19.3 kmh 29.52 in999.7 mb 0.00 in0.0 mm 0.00 in0.0 mm 0.00 in0.0 mm
04:10 AM 39.7°F4.3°C 35.1°F1.7°C 83% 8.0 mph WSW12.9 kmh WSW 15.0 mph24.1 kmh 29.52 in999.7 mb 0.00 in0.0 mm 0.00 in0.0 mm 0.00 in0.0 mm
04:15 AM 39.6°F4.2°C 35.1°F1.7°C 84% 6.0 mph WSW9.7 kmh WSW 11.0 mph17.7 kmh 29.52 in999.7 mb 0.00 in0.0 mm 0.00 in0.0 mm 0.00 in0.0 mm
04:20 AM 39.4°F4.1°C 34.9°F1.6°C 84% 3.0 mph W4.8 kmh W 9.0 mph14.5 kmh 29.53 in1000.0 mb 0.00 in0.0 mm 0.00 in0.0 mm 0.00 in0.0 mm
04:25 AM 39.0°F3.9°C 34.5°F1.4°C 84% 1.0 mph W1.6 kmh W 7.0 mph11.3 kmh 29.53 in1000.0 mb 0.00 in0.0 mm 0.00 in0.0 mm 0.00 in0.0 mm
04:30 AM 38.8°F3.8°C 34.3°F1.3°C 84% 1.0 mph WSW1.6 kmh WSW 7.0 mph11.3 kmh 29.53 in1000.0 mb 0.00 in0.0 mm 0.00 in0.0 mm 0.00 in0.0 mm
04:35 AM 38.7°F3.7°C 34.5°F1.4°C 85% 3.0 mph WSW4.8 kmh WSW 8.0 mph12.9 kmh 29.53 in1000.0 mb 0.00 in0.0 mm 0.00 in0.0 mm 0.00 in0.0 mm
04:40 AM 38.1°F3.4°C 34.0°F1.1°C 85% 2.0 mph WSW3.2 kmh WSW 7.0 mph11.3 kmh 29.54 in1000.3 mb 0.00 in0.0 mm 0.00 in0.0 mm 0.00 in0.0 mm
04:45 AM 37.9°F3.3°C 33.8°F1.0°C 85% 3.0 mph WSW4.8 kmh WSW 7.0 mph11.3 kmh 29.54 in1000.3 mb 0.00 in0.0 mm 0.00 in0.0 mm 0.00 in0.0 mm
04:50 AM 37.8°F3.2°C 34.0°F1.1°C 86% 2.0 mph SW3.2 kmh SW 7.0 mph11.3 kmh 29.54 in1000.3 mb 0.00 in0.0 mm 0.00 in0.0 mm 0.00 in0.0 mm
04:55 AM 37.6°F3.1°C 33.8°F1.0°C 86% 1.0 mph SW1.6 kmh SW 5.0 mph8.0 kmh 29.54 in1000.3 mb 0.00 in0.0 mm 0.00 in0.0 mm 0.00 in0.0 mm
05:00 AM 37.6°F3.1°C 34.0°F1.1°C 87% 1.0 mph SW1.6 kmh SW 6.0 mph9.7 kmh 29.54 in1000.3 mb 0.00 in0.0 mm 0.00 in0.0 mm 0.00 in0.0 mm
05:05 AM 37.2°F2.9°C 33.6°F0.9°C 87% Calm Calm 5.0 mph8.0 kmh 29.55 in1000.7 mb 0.00 in0.0 mm 0.00 in0.0 mm 0.00 in0.0 mm
05:10 AM 37.0°F2.8°C 33.6°F0.9°C 87% Calm Calm -- 29.55 in1000.7 mb 0.00 in0.0 mm 0.00 in0.0 mm 0.00 in0.0 mm
05:15 AM 37.2°F2.9°C 33.6°F0.9°C 87% 1.0 mph WSW1.6 kmh WSW 7.0 mph11.3 kmh 29.55 in1000.7 mb 0.00 in0.0 mm 0.00 in0.0 mm 0.00 in0.0 mm
05:20 AM 37.2°F2.9°C 33.6°F0.9°C 87% Calm Calm 2.0 mph3.2 kmh 29.55 in1000.7 mb 0.00 in0.0 mm 0.00 in0.0 mm 0.00 in0.0 mm
05:25 AM 37.2°F2.9°C 33.6°F0.9°C 87% Calm Calm -- 29.55 in1000.7 mb 0.00 in0.0 mm 0.00 in0.0 mm 0.00 in0.0 mm
05:30 AM 37.0°F2.8°C 33.3°F0.7°C 86% Calm Calm 3.0 mph4.8 kmh 29.55 in1000.7 mb 0.00 in0.0 mm 0.00 in0.0 mm 0.00 in0.0 mm
05:35 AM 37.0°F2.8°C 33.3°F0.7°C 86% 2.0 mph SW3.2 kmh SW 4.0 mph6.4 kmh 29.56 in1001.0 mb 0.00 in0.0 mm 0.00 in0.0 mm 0.00 in0.0 mm
05:40 AM 37.0°F2.8°C 33.6°F0.9°C 87% 1.0 mph SW1.6 kmh SW 4.0 mph6.4 kmh 29.56 in1001.0 mb 0.00 in0.0 mm 0.00 in0.0 mm 0.00 in0.0 mm
05:45 AM 36.9°F2.7°C 33.4°F0.8°C 87% Calm Calm 3.0 mph4.8 kmh 29.56 in1001.0 mb 0.00 in0.0 mm 0.00 in0.0 mm 0.00 in0.0 mm
05:50 AM 36.9°F2.7°C 33.4°F0.8°C 87% Calm Calm -- 29.57 in1001.4 mb 0.00 in0.0 mm 0.00 in0.0 mm 0.00 in0.0 mm
05:55 AM 36.9°F2.7°C 33.4°F0.8°C 87% Calm Calm -- 29.57 in1001.4 mb 0.00 in0.0 mm 0.00 in0.0 mm 0.00 in0.0 mm
06:00 AM 36.7°F2.6°C 33.3°F0.7°C 87% Calm Calm -- 29.57 in1001.4 mb 0.00 in0.0 mm 0.00 in0.0 mm 0.00 in0.0 mm
06:05 AM 36.7°F2.6°C 33.3°F0.7°C 87% Calm Calm -- 29.57 in1001.4 mb 0.00 in0.0 mm 0.00 in0.0 mm 0.00 in0.0 mm
06:10 AM 36.3°F2.4°C 32.9°F0.5°C 87% Calm Calm -- 29.57 in1001.4 mb 0.00 in0.0 mm 0.00 in0.0 mm 0.00 in0.0 mm
06:15 AM 36.1°F2.3°C 32.7°F0.4°C 87% Calm Calm -- 29.58 in1001.7 mb 0.00 in0.0 mm 0.00 in0.0 mm 0.00 in0.0 mm
06:20 AM 36.1°F2.3°C 32.9°F0.5°C 88% 1.0 mph SW1.6 kmh SW 5.0 mph8.0 kmh 29.58 in1001.7 mb 0.00 in0.0 mm 0.00 in0.0 mm 0.00 in0.0 mm
06:25 AM 36.9°F2.7°C 34.0°F1.1°C 89% 3.0 mph SW4.8 kmh SW 8.0 mph12.9 kmh 29.58 in1001.7 mb 0.00 in0.0 mm 0.00 in0.0 mm 0.00 in0.0 mm
06:30 AM 37.4°F3.0°C 34.5°F1.4°C 89% 3.0 mph SW4.8 kmh SW 7.0 mph11.3 kmh 29.58 in1001.7 mb 0.00 in0.0 mm 0.00 in0.0 mm 0.00 in0.0 mm
06:35 AM 37.8°F3.2°C 34.5°F1.4°C 88% 2.0 mph WSW3.2 kmh WSW 8.0 mph12.9 kmh 29.58 in1001.7 mb 0.00 in0.0 mm 0.00 in0.0 mm 0.00 in0.0 mm
06:40 AM 37.9°F3.3°C 34.7°F1.5°C 88% 3.0 mph WSW4.8 kmh WSW 7.0 mph11.3 kmh 29.59 in1002.0 mb 0.00 in0.0 mm 0.00 in0.0 mm 0.00 in0.0 mm
06:45 AM 37.9°F3.3°C 34.7°F1.5°C 88% 3.0 mph WSW4.8 kmh WSW 7.0 mph11.3 kmh 29.59 in1002.0 mb 0.00 in0.0 mm 0.00 in0.0 mm 0.00 in0.0 mm
06:50 AM 37.9°F3.3°C 34.3°F1.3°C 87% 6.0 mph SW9.7 kmh SW 9.0 mph14.5 kmh 29.59 in1002.0 mb 0.00 in0.0 mm 0.00 in0.0 mm 0.00 in0.0 mm
06:55 AM 37.8°F3.2°C 34.2°F1.2°C 87% 5.0 mph SW8.0 kmh SW 9.0 mph14.5 kmh 29.59 in1002.0 mb 0.00 in0.0 mm 0.00 in0.0 mm 0.00 in0.0 mm
07:00 AM 37.6°F3.1°C 34.0°F1.1°C 87% 5.0 mph WSW8.0 kmh WSW 9.0 mph14.5 kmh 29.59 in1002.0 mb 0.00 in0.0 mm 0.00 in0.0 mm 0.00 in0.0 mm
07:05 AM 37.6°F3.1°C 33.8°F1.0°C 86% 6.0 mph SW9.7 kmh SW 9.0 mph14.5 kmh 29.59 in1002.0 mb 0.00 in0.0 mm 0.00 in0.0 mm 0.00 in0.0 mm
07:10 AM 37.6°F3.1°C 33.8°F1.0°C 86% 6.0 mph SW9.7 kmh SW 9.0 mph14.5 kmh 29.59 in1002.0 mb 0.00 in0.0 mm 0.00 in0.0 mm 0.00 in0.0 mm
07:15 AM 37.6°F3.1°C 33.8°F1.0°C 86% 4.0 mph SW6.4 kmh SW 9.0 mph14.5 kmh 29.60 in1002.4 mb 0.00 in0.0 mm 0.00 in0.0 mm 0.00 in0.0 mm
07:20 AM 37.4°F3.0°C 33.6°F0.9°C 86% 4.0 mph SW6.4 kmh SW 8.0 mph12.9 kmh 29.60 in1002.4 mb 0.00 in0.0 mm 0.00 in0.0 mm 0.00 in0.0 mm
07:25 AM 37.4°F3.0°C 33.6°F0.9°C 86% 4.0 mph SW6.4 kmh SW 7.0 mph11.3 kmh 29.60 in1002.4 mb 0.00 in0.0 mm 0.00 in0.0 mm 0.00 in0.0 mm
07:30 AM 37.9°F3.3°C 34.2°F1.2°C 86% 4.0 mph SW6.4 kmh SW 10.0 mph16.1 kmh 29.61 in1002.7 mb 0.00 in0.0 mm 0.00 in0.0 mm 0.00 in0.0 mm
07:35 AM 38.1°F3.4°C 33.8°F1.0°C 84% 4.0 mph WSW6.4 kmh WSW 9.0 mph14.5 kmh 29.61 in1002.7 mb 0.00 in0.0 mm 0.00 in0.0 mm 0.00 in0.0 mm
07:40 AM 38.1°F3.4°C 33.8°F1.0°C 84% 4.0 mph WSW6.4 kmh WSW 8.0 mph12.9 kmh 29.61 in1002.7 mb 0.00 in0.0 mm 0.00 in0.0 mm 0.00 in0.0 mm
07:45 AM 38.1°F3.4°C 33.8°F1.0°C 84% 5.0 mph WSW8.0 kmh WSW 10.0 mph16.1 kmh 29.62 in1003.0 mb 0.00 in0.0 mm 0.00 in0.0 mm 0.00 in0.0 mm
07:50 AM 38.8°F3.8°C 34.7°F1.5°C 85% 5.0 mph SW8.0 kmh SW 10.0 mph16.1 kmh 29.62 in1003.0 mb 0.00 in0.0 mm 0.00 in0.0 mm 0.00 in0.0 mm
07:55 AM 39.6°F4.2°C 35.1°F1.7°C 84% 6.0 mph SW9.7 kmh SW 12.0 mph19.3 kmh 29.62 in1003.0 mb 0.00 in0.0 mm 0.00 in0.0 mm 0.00 in0.0 mm
08:00 AM 39.9°F4.4°C 35.4°F1.9°C 84% 8.0 mph WSW12.9 kmh WSW 11.0 mph17.7 kmh 29.62 in1003.0 mb 0.00 in0.0 mm 0.00 in0.0 mm 0.00 in0.0 mm
08:05 AM 40.5°F4.7°C 35.8°F2.1°C 83% 10.0 mph SW16.1 kmh SW 16.0 mph25.7 kmh 29.62 in1003.0 mb 0.00 in0.0 mm 0.00 in0.0 mm 0.00 in0.0 mm
08:10 AM 40.8°F4.9°C 34.9°F1.6°C 79% 12.0 mph WSW19.3 kmh WSW 20.0 mph32.2 kmh 29.62 in1003.0 mb 0.00 in0.0 mm 0.00 in0.0 mm 0.00 in0.0 mm
08:15 AM 41.2°F5.1°C 35.2°F1.8°C 79% 13.0 mph WSW20.9 kmh WSW 18.0 mph29.0 kmh 29.62 in1003.0 mb 0.00 in0.0 mm 0.00 in0.0 mm 0.00 in0.0 mm
08:20 AM 41.4°F5.2°C 36.0°F2.2°C 81% 10.0 mph WSW16.1 kmh WSW 16.0 mph25.7 kmh 29.63 in1003.4 mb 0.00 in0.0 mm 0.00 in0.0 mm 0.00 in0.0 mm
08:25 AM 41.4°F5.2°C 36.0°F2.2°C 81% 8.0 mph SW12.9 kmh SW 13.0 mph20.9 kmh 29.63 in1003.4 mb 0.00 in0.0 mm 0.00 in0.0 mm 0.00 in0.0 mm
08:30 AM 41.2°F5.1°C 36.1°F2.3°C 82% 9.0 mph SW14.5 kmh SW 13.0 mph20.9 kmh 29.63 in1003.4 mb 0.00 in0.0 mm 0.00 in0.0 mm 0.00 in0.0 mm
08:35 AM 40.8°F4.9°C 35.4°F1.9°C 81% 10.0 mph SW16.1 kmh SW 16.0 mph25.7 kmh 29.63 in1003.4 mb 0.00 in0.0 mm 0.00 in0.0 mm 0.00 in0.0 mm
08:40 AM 41.2°F5.1°C 35.8°F2.1°C 81% 10.0 mph WSW16.1 kmh WSW 16.0 mph25.7 kmh 29.63 in1003.4 mb 0.00 in0.0 mm 0.00 in0.0 mm 0.00 in0.0 mm
08:45 AM 41.7°F5.4°C 36.0°F2.2°C 80% 11.0 mph WSW17.7 kmh WSW 18.0 mph29.0 kmh 29.63 in1003.4 mb 0.00 in0.0 mm 0.00 in0.0 mm 0.00 in0.0 mm
08:50 AM 42.3°F5.7°C 36.0°F2.2°C 78% 10.0 mph WSW16.1 kmh WSW 14.0 mph22.5 kmh 29.64 in1003.7 mb 0.00 in0.0 mm 0.00 in0.0 mm 0.00 in0.0 mm
08:55 AM 42.4°F5.8°C 35.4°F1.9°C 76% 12.0 mph WSW19.3 kmh WSW 19.0 mph30.6 kmh 29.64 in1003.7 mb 0.00 in0.0 mm 0.00 in0.0 mm 0.00 in0.0 mm
09:00 AM 42.3°F5.7°C 35.2°F1.8°C 76% 10.0 mph W16.1 kmh W 18.0 mph29.0 kmh 29.65 in1004.1 mb 0.00 in0.0 mm 0.00 in0.0 mm 0.00 in0.0 mm
09:05 AM 42.3°F5.7°C 35.2°F1.8°C 76% 9.0 mph WSW14.5 kmh WSW 14.0 mph22.5 kmh 29.65 in1004.1 mb 0.00 in0.0 mm 0.00 in0.0 mm 0.00 in0.0 mm
09:10 AM 42.1°F5.6°C 34.7°F1.5°C 75% 12.0 mph W19.3 kmh W 20.0 mph32.2 kmh 29.65 in1004.1 mb 0.00 in0.0 mm 0.00 in0.0 mm 0.00 in0.0 mm
09:15 AM 42.4°F5.8°C 35.1°F1.7°C 75% 11.0 mph W17.7 kmh W 16.0 mph25.7 kmh 29.66 in1004.4 mb 0.00 in0.0 mm 0.00 in0.0 mm 0.00 in0.0 mm
09:20 AM 43.0°F6.1°C 35.6°F2.0°C 75% 10.0 mph W16.1 kmh W 16.0 mph25.7 kmh 29.66 in1004.4 mb 0.00 in0.0 mm 0.00 in0.0 mm 0.00 in0.0 mm
09:25 AM 43.3°F6.3°C 35.6°F2.0°C 74% 12.0 mph W19.3 kmh W 20.0 mph32.2 kmh 29.66 in1004.4 mb 0.00 in0.0 mm 0.00 in0.0 mm 0.00 in0.0 mm
09:30 AM 43.5°F6.4°C 35.8°F2.1°C 74% 9.0 mph W14.5 kmh W 14.0 mph22.5 kmh 29.66 in1004.4 mb 0.00 in0.0 mm 0.00 in0.0 mm 0.00 in0.0 mm
09:35 AM 43.9°F6.6°C 35.8°F2.1°C 73% 9.0 mph W14.5 kmh W 15.0 mph24.1 kmh 29.66 in1004.4 mb 0.00 in0.0 mm 0.00 in0.0 mm 0.00 in0.0 mm
09:40 AM 43.9°F6.6°C 35.1°F1.7°C 71% 10.0 mph W16.1 kmh W 15.0 mph24.1 kmh 29.66 in1004.4 mb 0.00 in0.0 mm 0.00 in0.0 mm 0.00 in0.0 mm
09:45 AM 44.8°F7.1°C 36.7°F2.6°C 73% 10.0 mph W16.1 kmh W 19.0 mph30.6 kmh 29.67 in1004.7 mb 0.00 in0.0 mm 0.00 in0.0 mm 0.00 in0.0 mm
09:50 AM 44.2°F6.8°C 34.3°F1.3°C 68% 12.0 mph WSW19.3 kmh WSW 19.0 mph30.6 kmh 29.67 in1004.7 mb 0.00 in0.0 mm 0.00 in0.0 mm 0.00 in0.0 mm
09:55 AM 43.5°F6.4°C 34.3°F1.3°C 70% 11.0 mph W17.7 kmh W 18.0 mph29.0 kmh 29.67 in1004.7 mb 0.00 in0.0 mm 0.00 in0.0 mm 0.00 in0.0 mm
10:00 AM 43.5°F6.4°C 34.7°F1.5°C 71% 10.0 mph W16.1 kmh W 18.0 mph29.0 kmh 29.67 in1004.7 mb 0.00 in0.0 mm 0.00 in0.0 mm 0.00 in0.0 mm
10:05 AM 43.9°F6.6°C 34.7°F1.5°C 70% 12.0 mph W19.3 kmh W 28.0 mph45.1 kmh 29.67 in1004.7 mb 0.00 in0.0 mm 0.00 in0.0 mm 0.00 in0.0 mm
10:10 AM 44.1°F6.7°C 34.2°F1.2°C 68% 9.0 mph W14.5 kmh W 27.0 mph43.5 kmh 29.67 in1004.7 mb 0.00 in0.0 mm 0.00 in0.0 mm 0.00 in0.0 mm
10:15 AM 43.9°F6.6°C 34.7°F1.5°C 70% 10.0 mph W16.1 kmh W 19.0 mph30.6 kmh 29.67 in1004.7 mb 0.00 in0.0 mm 0.00 in0.0 mm 0.00 in0.0 mm
10:20 AM 43.5°F6.4°C 34.7°F1.5°C 71% 11.0 mph WSW17.7 kmh WSW 17.0 mph27.4 kmh 29.67 in1004.7 mb 0.00 in0.0 mm 0.00 in0.0 mm 0.00 in0.0 mm
10:25 AM 44.2°F6.8°C 35.4°F1.9°C 71% 11.0 mph W17.7 kmh W 15.0 mph24.1 kmh 29.68 in1005.1 mb 0.00 in0.0 mm 0.00 in0.0 mm 0.00 in0.0 mm
10:30 AM 45.3°F7.4°C 35.4°F1.9°C 68% 11.0 mph W17.7 kmh W 15.0 mph24.1 kmh 29.68 in1005.1 mb 0.00 in0.0 mm 0.00 in0.0 mm 0.00 in0.0 mm
10:35 AM 45.9°F7.7°C 35.6°F2.0°C 67% 10.0 mph W16.1 kmh W 15.0 mph24.1 kmh 29.68 in1005.1 mb 0.00 in0.0 mm 0.00 in0.0 mm 0.00 in0.0 mm
10:40 AM 45.9°F7.7°C 34.7°F1.5°C 65% 10.0 mph W16.1 kmh W 16.0 mph25.7 kmh 29.69 in1005.4 mb 0.00 in0.0 mm 0.00 in0.0 mm 0.00 in0.0 mm
10:45 AM 46.0°F7.8°C 35.6°F2.0°C 67% 8.0 mph W12.9 kmh W 13.0 mph20.9 kmh 29.69 in1005.4 mb 0.00 in0.0 mm 0.00 in0.0 mm 0.00 in0.0 mm
10:50 AM 45.3°F7.4°C 35.8°F2.1°C 69% 8.0 mph W12.9 kmh W 15.0 mph24.1 kmh 29.69 in1005.4 mb 0.00 in0.0 mm 0.00 in0.0 mm 0.00 in0.0 mm
10:55 AM 45.1°F7.3°C 35.2°F1.8°C 68% 10.0 mph W16.1 kmh W 16.0 mph25.7 kmh 29.69 in1005.4 mb 0.00 in0.0 mm 0.00 in0.0 mm 0.00 in0.0 mm
11:00 AM 44.8°F7.1°C 34.2°F1.2°C 66% 13.0 mph WNW20.9 kmh WNW 19.0 mph30.6 kmh 29.70 in1005.8 mb 0.00 in0.0 mm 0.00 in0.0 mm 0.00 in0.0 mm
11:05 AM 44.8°F7.1°C 34.2°F1.2°C 66% 11.0 mph W17.7 kmh W 17.0 mph27.4 kmh 29.70 in1005.8 mb 0.00 in0.0 mm 0.00 in0.0 mm 0.00 in0.0 mm
11:10 AM 45.0°F7.2°C 34.7°F1.5°C 67% 10.0 mph WNW16.1 kmh WNW 15.0 mph24.1 kmh 29.70 in1005.8 mb 0.00 in0.0 mm 0.00 in0.0 mm 0.00 in0.0 mm
11:15 AM 45.9°F7.7°C 34.7°F1.5°C 65% 8.0 mph W12.9 kmh W 14.0 mph22.5 kmh 29.69 in1005.4 mb 0.00 in0.0 mm 0.00 in0.0 mm 0.00 in0.0 mm
11:20 AM 45.3°F7.4°C 34.7°F1.5°C 66% 10.0 mph W16.1 kmh W 16.0 mph25.7 kmh 29.70 in1005.8 mb 0.00 in0.0 mm 0.00 in0.0 mm 0.00 in0.0 mm
11:25 AM 43.9°F6.6°C 34.7°F1.5°C 70% 12.0 mph W19.3 kmh W 18.0 mph29.0 kmh 29.70 in1005.8 mb 0.00 in0.0 mm 0.00 in0.0 mm 0.00 in0.0 mm
11:30 AM 43.3°F6.3°C 35.2°F1.8°C 73% 7.0 mph W11.3 kmh W 11.0 mph17.7 kmh 29.70 in1005.8 mb 0.00 in0.0 mm 0.00 in0.0 mm 0.00 in0.0 mm
11:35 AM 44.2°F6.8°C 37.2°F2.9°C 76% 7.0 mph W11.3 kmh W 11.0 mph17.7 kmh 29.70 in1005.8 mb 0.00 in0.0 mm 0.00 in0.0 mm 0.00 in0.0 mm
11:40 AM 44.4°F6.9°C 36.7°F2.6°C 74% 7.0 mph W11.3 kmh W 12.0 mph19.3 kmh 29.70 in1005.8 mb 0.00 in0.0 mm 0.00 in0.0 mm 0.00 in0.0 mm
11:45 AM 45.0°F7.2°C 36.9°F2.7°C 73% 7.0 mph W11.3 kmh W 12.0 mph19.3 kmh 29.70 in1005.8 mb 0.00 in0.0 mm 0.00 in0.0 mm 0.00 in0.0 mm
11:50 AM 46.2°F7.9°C 37.4°F3.0°C 71% 8.0 mph W12.9 kmh W 13.0 mph20.9 kmh 29.70 in1005.8 mb 0.00 in0.0 mm 0.00 in0.0 mm 0.00 in0.0 mm
11:55 AM 46.4°F8.0°C 36.3°F2.4°C 68% 11.0 mph W17.7 kmh W 18.0 mph29.0 kmh 29.70 in1005.8 mb 0.00 in0.0 mm 0.00 in0.0 mm 0.00 in0.0 mm
12:00 PM 46.0°F7.8°C 35.6°F2.0°C 67% 10.0 mph W16.1 kmh W 17.0 mph27.4 kmh 29.70 in1005.8 mb 0.00 in0.0 mm 0.00 in0.0 mm 0.00 in0.0 mm
12:05 PM 46.9°F8.3°C 36.9°F2.7°C 68% 10.0 mph W16.1 kmh W 18.0 mph29.0 kmh 29.70 in1005.8 mb 0.00 in0.0 mm 0.00 in0.0 mm 0.00 in0.0 mm
12:10 PM 47.1°F8.4°C 34.7°F1.5°C 62% 13.0 mph W20.9 kmh W 18.0 mph29.0 kmh 29.70 in1005.8 mb 0.00 in0.0 mm 0.00 in0.0 mm 0.00 in0.0 mm
12:15 PM 46.0°F7.8°C 35.6°F2.0°C 67% 10.0 mph W16.1 kmh W 15.0 mph24.1 kmh 29.70 in1005.8 mb 0.00 in0.0 mm 0.00 in0.0 mm 0.00 in0.0 mm
12:20 PM 46.0°F7.8°C 35.6°F2.0°C 67% 9.0 mph W14.5 kmh W 15.0 mph24.1 kmh 29.70 in1005.8 mb 0.00 in0.0 mm 0.00 in0.0 mm 0.00 in0.0 mm
12:25 PM 46.0°F7.8°C 33.8°F1.0°C 62% 9.0 mph W14.5 kmh W 15.0 mph24.1 kmh 29.70 in1005.8 mb 0.00 in0.0 mm 0.00 in0.0 mm 0.00 in0.0 mm
12:30 PM 46.8°F8.2°C 35.6°F2.0°C 65% 9.0 mph W14.5 kmh W 16.0 mph25.7 kmh 29.70 in1005.8 mb 0.00 in0.0 mm 0.00 in0.0 mm 0.00 in0.0 mm
12:35 PM 47.1°F8.4°C 34.3°F1.3°C 61% 15.0 mph WSW24.1 kmh WSW 22.0 mph35.4 kmh 29.70 in1005.8 mb 0.00 in0.0 mm 0.00 in0.0 mm 0.00 in0.0 mm
12:40 PM 47.3°F8.5°C 34.2°F1.2°C 60% 14.0 mph WSW22.5 kmh WSW 21.0 mph33.8 kmh 29.69 in1005.4 mb 0.00 in0.0 mm 0.00 in0.0 mm 0.00 in0.0 mm
12:45 PM 47.8°F8.8°C 35.1°F1.7°C 61% 15.0 mph W24.1 kmh W 26.0 mph41.8 kmh 29.70 in1005.8 mb 0.00 in0.0 mm 0.00 in0.0 mm 0.00 in0.0 mm
12:50 PM 47.8°F8.8°C 34.7°F1.5°C 60% 14.0 mph W22.5 kmh W 22.0 mph35.4 kmh 29.70 in1005.8 mb 0.00 in0.0 mm 0.00 in0.0 mm 0.00 in0.0 mm
12:55 PM 47.8°F8.8°C 34.2°F1.2°C 59% 15.0 mph W24.1 kmh W 25.0 mph40.2 kmh 29.70 in1005.8 mb 0.00 in0.0 mm 0.00 in0.0 mm 0.00 in0.0 mm
01:00 PM 47.5°F8.6°C 33.8°F1.0°C 59% 14.0 mph W22.5 kmh W 22.0 mph35.4 kmh 29.70 in1005.8 mb 0.00 in0.0 mm 0.00 in0.0 mm 0.00 in0.0 mm
01:05 PM 47.7°F8.7°C 33.1°F0.6°C 57% 13.0 mph W20.9 kmh W 22.0 mph35.4 kmh 29.70 in1005.8 mb 0.00 in0.0 mm 0.00 in0.0 mm 0.00 in0.0 mm
01:10 PM 46.9°F8.3°C 32.9°F0.5°C 58% 15.0 mph W24.1 kmh W 23.0 mph37.0 kmh 29.71 in1006.1 mb 0.00 in0.0 mm 0.00 in0.0 mm 0.00 in0.0 mm
01:15 PM 45.1°F7.3°C 34.9°F1.6°C 67% 14.0 mph W22.5 kmh W 22.0 mph35.4 kmh 29.71 in1006.1 mb 0.00 in0.0 mm 0.00 in0.0 mm 0.00 in0.0 mm
01:20 PM 45.1°F7.3°C 35.6°F2.0°C 69% 11.0 mph W17.7 kmh W 18.0 mph29.0 kmh 29.71 in1006.1 mb 0.00 in0.0 mm 0.00 in0.0 mm 0.00 in0.0 mm
01:25 PM 46.6°F8.1°C 36.5°F2.5°C 68% 11.0 mph WNW17.7 kmh WNW 15.0 mph24.1 kmh 29.71 in1006.1 mb 0.00 in0.0 mm 0.00 in0.0 mm 0.00 in0.0 mm
01:30 PM 46.9°F8.3°C 34.5°F1.4°C 62% 10.0 mph W16.1 kmh W 19.0 mph30.6 kmh 29.70 in1005.8 mb 0.00 in0.0 mm 0.00 in0.0 mm 0.00 in0.0 mm
01:35 PM 47.3°F8.5°C 34.9°F1.6°C 62% 10.0 mph W16.1 kmh W 18.0 mph29.0 kmh 29.70 in1005.8 mb 0.00 in0.0 mm 0.00 in0.0 mm 0.00 in0.0 mm
01:40 PM 47.8°F8.8°C 35.1°F1.7°C 61% 10.0 mph W16.1 kmh W 23.0 mph37.0 kmh 29.71 in1006.1 mb 0.00 in0.0 mm 0.00 in0.0 mm 0.00 in0.0 mm
01:45 PM 48.0°F8.9°C 34.0°F1.1°C 58% 13.0 mph W20.9 kmh W 24.0 mph38.6 kmh 29.71 in1006.1 mb 0.00 in0.0 mm 0.00 in0.0 mm 0.00 in0.0 mm
01:50 PM 48.0°F8.9°C 34.0°F1.1°C 58% 14.0 mph W22.5 kmh W 21.0 mph33.8 kmh 29.71 in1006.1 mb 0.00 in0.0 mm 0.00 in0.0 mm 0.00 in0.0 mm
01:55 PM 47.7°F8.7°C 33.1°F0.6°C 57% 13.0 mph WNW20.9 kmh WNW 22.0 mph35.4 kmh 29.71 in1006.1 mb 0.00 in0.0 mm 0.00 in0.0 mm 0.00 in0.0 mm
02:00 PM 47.8°F8.8°C 33.3°F0.7°C 57% 13.0 mph WNW20.9 kmh WNW 23.0 mph37.0 kmh 29.71 in1006.1 mb 0.00 in0.0 mm 0.00 in0.0 mm 0.00 in0.0 mm
02:05 PM 48.0°F8.9°C 34.0°F1.1°C 58% 13.0 mph WNW20.9 kmh WNW 24.0 mph38.6 kmh 29.72 in1006.4 mb 0.00 in0.0 mm 0.00 in0.0 mm 0.00 in0.0 mm
02:10 PM 48.7°F9.3°C 33.8°F1.0°C 56% 15.0 mph W24.1 kmh W 26.0 mph41.8 kmh 29.72 in1006.4 mb 0.00 in0.0 mm 0.00 in0.0 mm 0.00 in0.0 mm
02:15 PM 48.0°F8.9°C 32.2°F0.1°C 54% 17.0 mph W27.4 kmh W 29.0 mph46.7 kmh 29.72 in1006.4 mb 0.00 in0.0 mm 0.00 in0.0 mm 0.00 in0.0 mm
02:20 PM 46.9°F8.3°C 32.5°F0.3°C 57% 14.0 mph WNW22.5 kmh WNW 24.0 mph38.6 kmh 29.72 in1006.4 mb 0.00 in0.0 mm 0.00 in0.0 mm 0.00 in0.0 mm
02:25 PM 46.9°F8.3°C 32.9°F0.5°C 58% 14.0 mph W22.5 kmh W 24.0 mph38.6 kmh 29.72 in1006.4 mb 0.00 in0.0 mm 0.00 in0.0 mm 0.00 in0.0 mm
02:30 PM 46.6°F8.1°C 33.4°F0.8°C 60% 14.0 mph W22.5 kmh W 22.0 mph35.4 kmh 29.72 in1006.4 mb 0.00 in0.0 mm 0.00 in0.0 mm 0.00 in0.0 mm
02:35 PM 46.9°F8.3°C 34.5°F1.4°C 62% 13.0 mph W20.9 kmh W 22.0 mph35.4 kmh 29.73 in1006.8 mb 0.00 in0.0 mm 0.00 in0.0 mm 0.00 in0.0 mm
02:40 PM 46.9°F8.3°C 35.1°F1.7°C 63% 12.0 mph W19.3 kmh W 22.0 mph35.4 kmh 29.73 in1006.8 mb 0.00 in0.0 mm 0.00 in0.0 mm 0.00 in0.0 mm
02:45 PM 47.3°F8.5°C 34.9°F1.6°C 62% 12.0 mph W19.3 kmh W 19.0 mph30.6 kmh 29.73 in1006.8 mb 0.00 in0.0 mm 0.00 in0.0 mm 0.00 in0.0 mm
02:50 PM 47.8°F8.8°C 36.3°F2.4°C 64% 10.0 mph WNW16.1 kmh WNW 16.0 mph25.7 kmh 29.73 in1006.8 mb 0.00 in0.0 mm 0.00 in0.0 mm 0.00 in0.0 mm
02:55 PM 47.3°F8.5°C 35.4°F1.9°C 63% 11.0 mph W17.7 kmh W 16.0 mph25.7 kmh 29.73 in1006.8 mb 0.00 in0.0 mm 0.00 in0.0 mm 0.00 in0.0 mm
03:00 PM 46.8°F8.2°C 35.6°F2.0°C 65% 8.0 mph W12.9 kmh W 13.0 mph20.9 kmh 29.73 in1006.8 mb 0.00 in0.0 mm 0.00 in0.0 mm 0.00 in0.0 mm
03:05 PM 46.8°F8.2°C 35.2°F1.8°C 64% 9.0 mph W14.5 kmh W 18.0 mph29.0 kmh 29.73 in1006.8 mb 0.00 in0.0 mm 0.00 in0.0 mm 0.00 in0.0 mm
03:10 PM 46.8°F8.2°C 34.0°F1.1°C 61% 11.0 mph W17.7 kmh W 22.0 mph35.4 kmh 29.73 in1006.8 mb 0.00 in0.0 mm 0.00 in0.0 mm 0.00 in0.0 mm
03:15 PM 47.1°F8.4°C 34.7°F1.5°C 62% 11.0 mph W17.7 kmh W 19.0 mph30.6 kmh 29.73 in1006.8 mb 0.00 in0.0 mm 0.00 in0.0 mm 0.00 in0.0 mm
03:20 PM 47.3°F8.5°C 34.2°F1.2°C 60% 12.0 mph W19.3 kmh W 20.0 mph32.2 kmh 29.73 in1006.8 mb 0.00 in0.0 mm 0.00 in0.0 mm 0.00 in0.0 mm
03:25 PM 47.3°F8.5°C 34.9°F1.6°C 62% 12.0 mph W19.3 kmh W 18.0 mph29.0 kmh 29.73 in1006.8 mb 0.00 in0.0 mm 0.00 in0.0 mm 0.00 in0.0 mm
03:30 PM 46.9°F8.3°C 34.2°F1.2°C 61% 13.0 mph W20.9 kmh W 23.0 mph37.0 kmh 29.74 in1007.1 mb 0.00 in0.0 mm 0.00 in0.0 mm 0.00 in0.0 mm
03:35 PM 47.1°F8.4°C 34.7°F1.5°C 62% 11.0 mph W17.7 kmh W 18.0 mph29.0 kmh 29.74 in1007.1 mb 0.00 in0.0 mm 0.00 in0.0 mm 0.00 in0.0 mm
03:40 PM 46.9°F8.3°C 34.5°F1.4°C 62% 10.0 mph W16.1 kmh W 14.0 mph22.5 kmh 29.74 in1007.1 mb 0.00 in0.0 mm 0.00 in0.0 mm 0.00 in0.0 mm
03:45 PM 46.8°F8.2°C 35.2°F1.8°C 64% 10.0 mph W16.1 kmh W 18.0 mph29.0 kmh 29.74 in1007.1 mb 0.00 in0.0 mm 0.00 in0.0 mm 0.00 in0.0 mm
03:50 PM 46.8°F8.2°C 35.2°F1.8°C 64% 12.0 mph W19.3 kmh W 19.0 mph30.6 kmh 29.75 in1007.5 mb 0.00 in0.0 mm 0.00 in0.0 mm 0.00 in0.0 mm
03:55 PM 46.8°F8.2°C 35.6°F2.0°C 65% 10.0 mph W16.1 kmh W 16.0 mph25.7 kmh 29.75 in1007.5 mb 0.00 in0.0 mm 0.00 in0.0 mm 0.00 in0.0 mm
04:00 PM 46.6°F8.1°C 36.1°F2.3°C 67% 11.0 mph W17.7 kmh W 18.0 mph29.0 kmh 29.75 in1007.5 mb 0.00 in0.0 mm 0.00 in0.0 mm 0.00 in0.0 mm
04:05 PM 45.3°F7.4°C 37.2°F2.9°C 73% 13.0 mph W20.9 kmh W 20.0 mph32.2 kmh 29.76 in1007.8 mb 0.00 in0.0 mm 0.00 in0.0 mm 0.00 in0.0 mm
04:10 PM 44.6°F7.0°C 37.2°F2.9°C 75% 13.0 mph W20.9 kmh W 19.0 mph30.6 kmh 29.76 in1007.8 mb 0.00 in0.0 mm 0.00 in0.0 mm 0.00 in0.0 mm
04:15 PM 44.8°F7.1°C 37.8°F3.2°C 76% 11.0 mph WSW17.7 kmh WSW 18.0 mph29.0 kmh 29.76 in1007.8 mb 0.00 in0.0 mm 0.00 in0.0 mm 0.00 in0.0 mm
04:20 PM 45.0°F7.2°C 37.8°F3.2°C 76% 11.0 mph WSW17.7 kmh WSW 17.0 mph27.4 kmh 29.76 in1007.8 mb 0.00 in0.0 mm 0.00 in0.0 mm 0.00 in0.0 mm
04:25 PM 44.8°F7.1°C 37.4°F3.0°C 75% 10.0 mph WSW16.1 kmh WSW 16.0 mph25.7 kmh 29.77 in1008.1 mb 0.00 in0.0 mm 0.00 in0.0 mm 0.00 in0.0 mm
04:30 PM 44.1°F6.7°C 37.2°F2.9°C 77% 10.0 mph WSW16.1 kmh WSW 16.0 mph25.7 kmh 29.77 in1008.1 mb 0.00 in0.0 mm 0.00 in0.0 mm 0.00 in0.0 mm
04:35 PM 43.9°F6.6°C 37.2°F2.9°C 77% 11.0 mph W17.7 kmh W 19.0 mph30.6 kmh 29.77 in1008.1 mb 0.00 in0.0 mm 0.00 in0.0 mm 0.00 in0.0 mm
04:40 PM 44.1°F6.7°C 37.2°F2.9°C 77% 11.0 mph WSW17.7 kmh WSW 15.0 mph24.1 kmh 29.78 in1008.5 mb 0.00 in0.0 mm 0.00 in0.0 mm 0.00 in0.0 mm
04:45 PM 44.1°F6.7°C 37.2°F2.9°C 77% 8.0 mph W12.9 kmh W 18.0 mph29.0 kmh 29.78 in1008.5 mb 0.00 in0.0 mm 0.00 in0.0 mm 0.00 in0.0 mm
04:50 PM 43.9°F6.6°C 37.2°F2.9°C 77% 11.0 mph W17.7 kmh W 18.0 mph29.0 kmh 29.78 in1008.5 mb 0.00 in0.0 mm 0.00 in0.0 mm 0.00 in0.0 mm
04:55 PM 44.1°F6.7°C 37.6°F3.1°C 78% 9.0 mph W14.5 kmh W 16.0 mph25.7 kmh 29.78 in1008.5 mb 0.00 in0.0 mm 0.00 in0.0 mm 0.00 in0.0 mm
05:00 PM 44.4°F6.9°C 37.6°F3.1°C 77% 11.0 mph W17.7 kmh W 15.0 mph24.1 kmh 29.78 in1008.5 mb 0.00 in0.0 mm 0.00 in0.0 mm 0.00 in0.0 mm
05:05 PM 44.4°F6.9°C 37.6°F3.1°C 77% 11.0 mph W17.7 kmh W 17.0 mph27.4 kmh 29.78 in1008.5 mb 0.00 in0.0 mm 0.00 in0.0 mm 0.00 in0.0 mm
05:10 PM 44.2°F6.8°C 37.8°F3.2°C 78% 9.0 mph W14.5 kmh W 15.0 mph24.1 kmh 29.79 in1008.8 mb 0.00 in0.0 mm 0.00 in0.0 mm 0.00 in0.0 mm
05:15 PM 44.4°F6.9°C 37.9°F3.3°C 78% 7.0 mph W11.3 kmh W 13.0 mph20.9 kmh 29.79 in1008.8 mb 0.00 in0.0 mm 0.00 in0.0 mm 0.00 in0.0 mm
05:20 PM 44.8°F7.1°C 38.3°F3.5°C 78% 5.0 mph W8.0 kmh W 9.0 mph14.5 kmh 29.80 in1009.1 mb 0.00 in0.0 mm 0.00 in0.0 mm 0.00 in0.0 mm
05:25 PM 44.8°F7.1°C 37.9°F3.3°C 77% 6.0 mph W9.7 kmh W 12.0 mph19.3 kmh 29.80 in1009.1 mb 0.00 in0.0 mm 0.00 in0.0 mm 0.00 in0.0 mm
05:30 PM 45.0°F7.2°C 37.6°F3.1°C 75% 7.0 mph W11.3 kmh W 15.0 mph24.1 kmh 29.79 in1008.8 mb 0.00 in0.0 mm 0.00 in0.0 mm 0.00 in0.0 mm
05:35 PM 45.0°F7.2°C 37.6°F3.1°C 75% 7.0 mph W11.3 kmh W 11.0 mph17.7 kmh 29.80 in1009.1 mb 0.00 in0.0 mm 0.00 in0.0 mm 0.00 in0.0 mm
05:40 PM 45.0°F7.2°C 37.8°F3.2°C 76% 7.0 mph W11.3 kmh W 11.0 mph17.7 kmh 29.80 in1009.1 mb 0.00 in0.0 mm 0.00 in0.0 mm 0.00 in0.0 mm
05:45 PM 44.8°F7.1°C 37.8°F3.2°C 76% 7.0 mph W11.3 kmh W 11.0 mph17.7 kmh 29.81 in1009.5 mb 0.00 in0.0 mm 0.00 in0.0 mm 0.00 in0.0 mm
05:50 PM 44.4°F6.9°C 37.4°F3.0°C 76% 7.0 mph W11.3 kmh W 11.0 mph17.7 kmh 29.81 in1009.5 mb 0.00 in0.0 mm 0.00 in0.0 mm 0.00 in0.0 mm
05:55 PM 44.1°F6.7°C 37.2°F2.9°C 77% 6.0 mph W9.7 kmh W 9.0 mph14.5 kmh 29.81 in1009.5 mb 0.00 in0.0 mm 0.00 in0.0 mm 0.00 in0.0 mm
06:00 PM 44.1°F6.7°C 37.2°F2.9°C 77% 7.0 mph W11.3 kmh W 10.0 mph16.1 kmh 29.82 in1009.8 mb 0.00 in0.0 mm 0.00 in0.0 mm 0.00 in0.0 mm
06:05 PM 43.9°F6.6°C 37.4°F3.0°C 78% 7.0 mph W11.3 kmh W 11.0 mph17.7 kmh 29.82 in1009.8 mb 0.00 in0.0 mm 0.00 in0.0 mm 0.00 in0.0 mm
06:10 PM 43.9°F6.6°C 37.4°F3.0°C 78% 5.0 mph W8.0 kmh W 10.0 mph16.1 kmh 29.82 in1009.8 mb 0.00 in0.0 mm 0.00 in0.0 mm 0.00 in0.0 mm
06:15 PM 43.9°F6.6°C 37.4°F3.0°C 78% 4.0 mph W6.4 kmh W 8.0 mph12.9 kmh 29.83 in1010.2 mb 0.00 in0.0 mm 0.00 in0.0 mm 0.00 in0.0 mm
06:20 PM 43.9°F6.6°C 37.8°F3.2°C 79% 3.0 mph W4.8 kmh W 6.0 mph9.7 kmh 29.83 in1010.2 mb 0.00 in0.0 mm 0.00 in0.0 mm 0.00 in0.0 mm
06:25 PM 43.7°F6.5°C 37.6°F3.1°C 79% 2.0 mph W3.2 kmh W 7.0 mph11.3 kmh 29.83 in1010.2 mb 0.00 in0.0 mm 0.00 in0.0 mm 0.00 in0.0 mm
06:30 PM 43.7°F6.5°C 37.6°F3.1°C 79% 1.0 mph WSW1.6 kmh WSW 4.0 mph6.4 kmh 29.83 in1010.2 mb 0.00 in0.0 mm 0.00 in0.0 mm 0.00 in0.0 mm
06:35 PM 43.5°F6.4°C 37.8°F3.2°C 80% Calm Calm -- 29.84 in1010.5 mb 0.00 in0.0 mm 0.00 in0.0 mm 0.00 in0.0 mm
06:40 PM 43.3°F6.3°C 37.6°F3.1°C 80% Calm Calm 3.0 mph4.8 kmh 29.84 in1010.5 mb 0.00 in0.0 mm 0.00 in0.0 mm 0.00 in0.0 mm
06:45 PM 43.2°F6.2°C 37.4°F3.0°C 80% Calm Calm -- 29.85 in1010.8 mb 0.00 in0.0 mm 0.00 in0.0 mm 0.00 in0.0 mm
06:50 PM 42.6°F5.9°C 36.9°F2.7°C 80% Calm Calm 6.0 mph9.7 kmh 29.85 in1010.8 mb 0.00 in0.0 mm 0.00 in0.0 mm 0.00 in0.0 mm
06:55 PM 42.3°F5.7°C 36.9°F2.7°C 81% Calm Calm 2.0 mph3.2 kmh 29.85 in1010.8 mb 0.00 in0.0 mm 0.00 in0.0 mm 0.00 in0.0 mm
07:00 PM 41.5°F5.3°C 36.1°F2.3°C 81% Calm Calm 3.0 mph4.8 kmh 29.85 in1010.8 mb 0.00 in0.0 mm 0.00 in0.0 mm 0.00 in0.0 mm
07:05 PM 41.4°F5.2°C 36.3°F2.4°C 82% Calm Calm 2.0 mph3.2 kmh 29.85 in1010.8 mb 0.00 in0.0 mm 0.00 in0.0 mm 0.00 in0.0 mm
07:10 PM 41.4°F5.2°C 36.5°F2.5°C 83% Calm Calm -- 29.85 in1010.8 mb 0.00 in0.0 mm 0.00 in0.0 mm 0.00 in0.0 mm
07:15 PM 41.7°F5.4°C 37.2°F2.9°C 84% 3.0 mph W4.8 kmh W 19.0 mph30.6 kmh 29.86 in1011.2 mb 0.00 in0.0 mm 0.00 in0.0 mm 0.00 in0.0 mm
07:20 PM 43.0°F6.1°C 37.6°F3.1°C 81% 7.0 mph W11.3 kmh W 13.0 mph20.9 kmh 29.86 in1011.2 mb 0.00 in0.0 mm 0.00 in0.0 mm 0.00 in0.0 mm
07:25 PM 43.0°F6.1°C 37.2°F2.9°C 80% 5.0 mph W8.0 kmh W 12.0 mph19.3 kmh 29.87 in1011.5 mb 0.00 in0.0 mm 0.00 in0.0 mm 0.00 in0.0 mm
07:30 PM 42.8°F6.0°C 37.4°F3.0°C 81% 1.0 mph W1.6 kmh W 8.0 mph12.9 kmh 29.87 in1011.5 mb 0.00 in0.0 mm 0.00 in0.0 mm 0.00 in0.0 mm
07:35 PM 42.4°F5.8°C 37.0°F2.8°C 81% Calm Calm -- 29.87 in1011.5 mb 0.00 in0.0 mm 0.00 in0.0 mm 0.00 in0.0 mm
07:40 PM 42.3°F5.7°C 37.2°F2.9°C 82% Calm Calm -- 29.87 in1011.5 mb 0.00 in0.0 mm 0.00 in0.0 mm 0.00 in0.0 mm
07:45 PM 41.9°F5.5°C 37.0°F2.8°C 83% Calm Calm -- 29.88 in1011.9 mb 0.00 in0.0 mm 0.00 in0.0 mm 0.00 in0.0 mm
07:50 PM 41.7°F5.4°C 37.6°F3.1°C 85% Calm Calm -- 29.88 in1011.9 mb 0.00 in0.0 mm 0.00 in0.0 mm 0.00 in0.0 mm
07:55 PM 42.1°F5.6°C 37.9°F3.3°C 85% Calm Calm 1.0 mph1.6 kmh 29.89 in1012.2 mb 0.00 in0.0 mm 0.00 in0.0 mm 0.00 in0.0 mm
08:00 PM 42.3°F5.7°C 38.1°F3.4°C 85% Calm Calm 2.0 mph3.2 kmh 29.89 in1012.2 mb 0.00 in0.0 mm 0.00 in0.0 mm 0.00 in0.0 mm
08:05 PM 42.6°F5.9°C 38.1°F3.4°C 84% 1.0 mph W1.6 kmh W 4.0 mph6.4 kmh 29.89 in1012.2 mb 0.00 in0.0 mm 0.00 in0.0 mm 0.00 in0.0 mm
08:10 PM 43.2°F6.2°C 38.3°F3.5°C 83% 2.0 mph WSW3.2 kmh WSW 7.0 mph11.3 kmh 29.90 in1012.5 mb 0.00 in0.0 mm 0.00 in0.0 mm 0.00 in0.0 mm
08:15 PM 43.3°F6.3°C 38.3°F3.5°C 82% 3.0 mph WSW4.8 kmh WSW 8.0 mph12.9 kmh 29.90 in1012.5 mb 0.00 in0.0 mm 0.00 in0.0 mm 0.00 in0.0 mm
08:20 PM 43.5°F6.4°C 38.1°F3.4°C 81% 5.0 mph WSW8.0 kmh WSW 10.0 mph16.1 kmh 29.90 in1012.5 mb 0.00 in0.0 mm 0.00 in0.0 mm 0.00 in0.0 mm
08:25 PM 43.5°F6.4°C 38.1°F3.4°C 81% 2.0 mph WSW3.2 kmh WSW 8.0 mph12.9 kmh 29.91 in1012.9 mb 0.00 in0.0 mm 0.00 in0.0 mm 0.00 in0.0 mm
08:30 PM 43.5°F6.4°C 37.8°F3.2°C 80% 2.0 mph WSW3.2 kmh WSW 8.0 mph12.9 kmh 29.91 in1012.9 mb 0.00 in0.0 mm 0.00 in0.0 mm 0.00 in0.0 mm
08:35 PM 43.5°F6.4°C 37.4°F3.0°C 79% 3.0 mph WSW4.8 kmh WSW 9.0 mph14.5 kmh 29.91 in1012.9 mb 0.00 in0.0 mm 0.00 in0.0 mm 0.00 in0.0 mm
08:40 PM 43.7°F6.5°C 37.6°F3.1°C 79% 3.0 mph WSW4.8 kmh WSW 7.0 mph11.3 kmh 29.91 in1012.9 mb 0.00 in0.0 mm 0.00 in0.0 mm 0.00 in0.0 mm
08:45 PM 43.5°F6.4°C 37.4°F3.0°C 79% 1.0 mph WSW1.6 kmh WSW 5.0 mph8.0 kmh 29.92 in1013.2 mb 0.00 in0.0 mm 0.00 in0.0 mm 0.00 in0.0 mm
08:50 PM 43.3°F6.3°C 37.2°F2.9°C 79% Calm Calm 1.0 mph1.6 kmh 29.92 in1013.2 mb 0.00 in0.0 mm 0.00 in0.0 mm 0.00 in0.0 mm
08:55 PM 43.0°F6.1°C 37.2°F2.9°C 80% Calm Calm 5.0 mph8.0 kmh 29.92 in1013.2 mb 0.00 in0.0 mm 0.00 in0.0 mm 0.00 in0.0 mm
09:00 PM 42.1°F5.6°C 36.7°F2.6°C 81% Calm Calm 2.0 mph3.2 kmh 29.92 in1013.2 mb 0.00 in0.0 mm 0.00 in0.0 mm 0.00 in0.0 mm
09:05 PM 41.9°F5.5°C 36.9°F2.7°C 82% 1.0 mph W1.6 kmh W 4.0 mph6.4 kmh 29.92 in1013.2 mb 0.00 in0.0 mm 0.00 in0.0 mm 0.00 in0.0 mm
09:10 PM 41.9°F5.5°C 36.5°F2.5°C 81% Calm Calm 3.0 mph4.8 kmh 29.93 in1013.5 mb 0.00 in0.0 mm 0.00 in0.0 mm 0.00 in0.0 mm
09:15 PM 42.1°F5.6°C 36.7°F2.6°C 81% 1.0 mph W1.6 kmh W 6.0 mph9.7 kmh 29.93 in1013.5 mb 0.00 in0.0 mm 0.00 in0.0 mm 0.00 in0.0 mm
09:20 PM 42.1°F5.6°C 36.3°F2.4°C 80% 1.0 mph WNW1.6 kmh WNW 3.0 mph4.8 kmh 29.94 in1013.9 mb 0.00 in0.0 mm 0.00 in0.0 mm 0.00 in0.0 mm
09:25 PM 41.9°F5.5°C 36.1°F2.3°C 80% Calm Calm 2.0 mph3.2 kmh 29.94 in1013.9 mb 0.00 in0.0 mm 0.00 in0.0 mm 0.00 in0.0 mm
09:30 PM 41.4°F5.2°C 36.0°F2.2°C 81% 1.0 mph W1.6 kmh W 4.0 mph6.4 kmh 29.94 in1013.9 mb 0.00 in0.0 mm 0.00 in0.0 mm 0.00 in0.0 mm
09:35 PM 41.4°F5.2°C 36.0°F2.2°C 81% 1.0 mph W1.6 kmh W 6.0 mph9.7 kmh 29.94 in1013.9 mb 0.00 in0.0 mm 0.00 in0.0 mm 0.00 in0.0 mm
09:40 PM 41.4°F5.2°C 36.0°F2.2°C 81% 1.0 mph W1.6 kmh W 4.0 mph6.4 kmh 29.94 in1013.9 mb 0.00 in0.0 mm 0.00 in0.0 mm 0.00 in0.0 mm
09:45 PM 41.2°F5.1°C 35.8°F2.1°C 81% Calm Calm 2.0 mph3.2 kmh 29.94 in1013.9 mb 0.00 in0.0 mm 0.00 in0.0 mm 0.00 in0.0 mm
09:50 PM 40.6°F4.8°C 35.2°F1.8°C 81% Calm Calm -- 29.95 in1014.2 mb 0.00 in0.0 mm 0.00 in0.0 mm 0.00 in0.0 mm
09:55 PM 40.3°F4.6°C 34.9°F1.6°C 81% Calm Calm -- 29.95 in1014.2 mb 0.00 in0.0 mm 0.00 in0.0 mm 0.00 in0.0 mm
10:00 PM 39.9°F4.4°C 34.5°F1.4°C 81% Calm Calm -- 29.95 in1014.2 mb 0.00 in0.0 mm 0.00 in0.0 mm 0.00 in0.0 mm
10:05 PM 39.7°F4.3°C 34.7°F1.5°C 82% Calm Calm -- 29.96 in1014.6 mb 0.00 in0.0 mm 0.00 in0.0 mm 0.00 in0.0 mm
10:10 PM 39.6°F4.2°C 34.9°F1.6°C 83% Calm Calm -- 29.96 in1014.6 mb 0.00 in0.0 mm 0.00 in0.0 mm 0.00 in0.0 mm
10:15 PM 39.6°F4.2°C 34.9°F1.6°C 83% Calm Calm -- 29.96 in1014.6 mb 0.00 in0.0 mm 0.00 in0.0 mm 0.00 in0.0 mm
10:20 PM 39.4°F4.1°C 34.7°F1.5°C 83% Calm Calm -- 29.96 in1014.6 mb 0.00 in0.0 mm 0.00 in0.0 mm 0.00 in0.0 mm
10:25 PM 39.4°F4.1°C 34.7°F1.5°C 83% Calm Calm -- 29.97 in1014.9 mb 0.00 in0.0 mm 0.00 in0.0 mm 0.00 in0.0 mm
10:30 PM 38.8°F3.8°C 33.8°F1.0°C 82% Calm Calm -- 29.97 in1014.9 mb 0.00 in0.0 mm 0.00 in0.0 mm 0.00 in0.0 mm
10:35 PM 38.5°F3.6°C 33.8°F1.0°C 83% Calm Calm -- 29.97 in1014.9 mb 0.00 in0.0 mm 0.00 in0.0 mm 0.00 in0.0 mm
10:40 PM 38.3°F3.5°C 33.6°F0.9°C 83% Calm Calm -- 29.97 in1014.9 mb 0.00 in0.0 mm 0.00 in0.0 mm 0.00 in0.0 mm
10:45 PM 38.1°F3.4°C 33.8°F1.0°C 84% Calm Calm -- 29.98 in1015.2 mb 0.00 in0.0 mm 0.00 in0.0 mm 0.00 in0.0 mm
10:50 PM 38.1°F3.4°C 34.0°F1.1°C 85% Calm Calm -- 29.98 in1015.2 mb 0.00 in0.0 mm 0.00 in0.0 mm 0.00 in0.0 mm
10:55 PM 38.3°F3.5°C 34.2°F1.2°C 85% Calm Calm -- 29.98 in1015.2 mb 0.00 in0.0 mm 0.00 in0.0 mm 0.00 in0.0 mm
11:00 PM 38.5°F3.6°C 34.3°F1.3°C 85% Calm Calm -- 29.98 in1015.2 mb 0.00 in0.0 mm 0.00 in0.0 mm 0.00 in0.0 mm
11:05 PM 38.1°F3.4°C 34.0°F1.1°C 85% Calm Calm -- 29.98 in1015.2 mb 0.00 in0.0 mm 0.00 in0.0 mm 0.00 in0.0 mm
11:10 PM 37.9°F3.3°C 33.8°F1.0°C 85% Calm Calm -- 29.98 in1015.2 mb 0.00 in0.0 mm 0.00 in0.0 mm 0.00 in0.0 mm
11:15 PM 37.6°F3.1°C 33.3°F0.7°C 84% Calm Calm -- 29.98 in1015.2 mb 0.00 in0.0 mm 0.00 in0.0 mm 0.00 in0.0 mm
11:20 PM 36.7°F2.6°C 32.0°F0.0°C 83% Calm Calm -- 29.98 in1015.2 mb 0.00 in0.0 mm 0.00 in0.0 mm 0.00 in0.0 mm
11:25 PM 36.3°F2.4°C 32.2°F0.1°C 85% Calm Calm -- 29.99 in1015.6 mb 0.00 in0.0 mm 0.00 in0.0 mm 0.00 in0.0 mm
11:30 PM 36.1°F2.3°C 32.4°F0.2°C 86% Calm Calm -- 29.99 in1015.6 mb 0.00 in0.0 mm 0.00 in0.0 mm 0.00 in0.0 mm
11:35 PM 36.0°F2.2°C 32.2°F0.1°C 86% Calm Calm -- 30.00 in1015.9 mb 0.00 in0.0 mm 0.00 in0.0 mm 0.00 in0.0 mm
11:40 PM 35.6°F2.0°C 31.8°F-0.1°C 86% Calm Calm -- 30.00 in1015.9 mb 0.00 in0.0 mm 0.00 in0.0 mm 0.00 in0.0 mm
11:45 PM 35.4°F1.9°C 32.0°F0.0°C 87% Calm Calm -- 30.00 in1015.9 mb 0.00 in0.0 mm 0.00 in0.0 mm 0.00 in0.0 mm
11:50 PM 35.2°F1.8°C 31.8°F-0.1°C 87% Calm Calm -- 30.01 in1016.3 mb 0.00 in0.0 mm 0.00 in0.0 mm 0.00 in0.0 mm
11:55 PM 35.2°F1.8°C 32.0°F0.0°C 88% Calm Calm -- 30.01 in1016.3 mb 0.00 in0.0 mm 0.00 in0.0 mm 0.00 in0.0 mm